Regional Weather Roundup
Issued by NWS Cleveland, OH

Home | Current Version | Previous Version | Graphics & Text | Print | Product List | Glossary On
Versions: 1 2 3 4 5 6 7 8 9 10 11 12 13 14 15 16 17 18 19 20 21 22 23 24 25 26 27 28 29 30 31 32 33 34 35 36 37 38 39 40 41 42 43 44 45 46 47 48 49 50
000
ASUS41 KCLE 010410
RWRCLE
OHIO REGIONAL WEATHER ROUNDUP
NATIONAL WEATHER SERVICE WILMINGTON, OH
1200 AM EDT WED OCT 01 2014

NOTE: "FAIR" INDICATES FEW OR NO CLOUDS BELOW 12,000 FEET WITH NO
SIGNIFICANT WEATHER AND/OR OBSTRUCTIONS TO VISIBILITY.

OHZ001>008-015>018-024>027-034-035-043-044-010500-
   NORTHWEST OHIO

CITY           SKY/WX    TMP DP  RH WIND       PRES   REMARKS
DEFIANCE       PTCLDY    52  48  86 CALM      30.02R
FINDLAY        MOCLDY    55  51  86 N8        30.00R
TOLEDO EXPRESS CLEAR     50  48  93 N5        30.02R
TOLEDO METCALF CLEAR     52  48  86 N8        30.02S
LIMA           CLEAR     50  46  86 CALM      30.01R
$$

OHZ009>014-019>023-028>033-038-089-010500-
   NORTHEAST OHIO

CITY           SKY/WX    TMP DP  RH WIND       PRES   REMARKS
CLE-HOPKINS    PTCLDY    54  50  86 CALM      30.01R
CLE-LAKEFRONT  PTCLDY    58  51  78 NE7       29.99R
CUY CO. ARPT   NOT AVBL
LORAIN-ELYRIA  CLOUDY    60  52  74 NE6       30.00S
ASHTABULA      PTCLDY    50  48  93 NE3       30.00R
AKRON-CANTON   MOCLDY    53  50  89 NE3       29.99R
WOOSTER        FOG       48  46  93 CALM      30.00S VSB 1/4
MANSFIELD      CLEAR     50  50 100 N3        29.99S FOG
YOUNGSTOWN     PTCLDY    53  52  96 CALM      29.99R
$$

OHZ042-051>053-060>062-070>072-077>081-010500-
  SOUTHWEST OHIO

CITY           SKY/WX    TMP DP  RH WIND       PRES   REMARKS
CINC-COVINGTON CLEAR     58  49  72 NE9       29.98R
CINC-LUNKEN    CLEAR     54  49  83 NE6       30.00R
HAMILTON       CLEAR     50  47  89 CALM      30.01R
DAYTON         CLEAR     48  45  89 N5        30.01S
WRIGHT-PAT AFB CLEAR     49  46  89 NE1       30.00S
DAYTON GENERAL CLEAR     50  46  86 NE5       29.99S
WILMINGTON     CLEAR     45  42  89 N3        30.00R
$$

OHZ036-037-039>041-045>050-054>059-063>069-073>076-082>088-010500-
  CENTRAL AND SOUTHEAST OHIO

CITY           SKY/WX    TMP DP  RH WIND       PRES   REMARKS
COLUMBUS       PTCLDY    51  48  89 CALM      29.99R
OSU AIRPORT    CLEAR     50  48  93 CALM      29.99R
BOLTON FIELD   MOCLDY    47  47  99 CALM      30.00R
RICKENBACK AFB CLOUDY    53  49  89 N6        29.99R
NEWARK         CLEAR     54  51  90 CALM      29.98S
MARION         FOG       47  45  93 NE3       30.00R VSB 3/4
LANCASTER      MOCLDY    51  49  92 CALM      29.99R
ZANESVILLE     PTCLDY    53  50  89 N5        29.98S
NEW PHILLY     PTCLDY    52  50  93 CALM      29.99S
$$


USA.gov is the U.S. government's official web portal to all federal, state and local government web resources and services.